Weather Roundup
Issued by NWS Corpus Christi, TX

Home | Current Version | Previous Version | Text Only | Print | Product List | Glossary Off
Versions: 1 2 3 4 5 6 7 8 9 10 11 12 13 14 15 16 17 18 19 20 21 22 23 24 25 26 27 28 29 30 31 32 33 34 35 36 37 38 39 40 41 42 43 44 45 46 47 48 49 50

000
ASUS44 KCRP 231710
HRRCRP

SOUTH TEXAS REGIONAL WEATHER ROUNDUP
NATIONAL WEATHER SERVICE CORPUS CHRISTI TX
1200 PM CDT THU OCT 23 2014


TXZ229>244-231800-
...CORPUS CHRISTI AREA OBSERVATIONS...

CITY           SKY/WX    TMP DP  RH WIND       PRES   REMARKS
CORPUS CHRISTI PTSUNNY   79  65  62 NE9       30.12R
NAS CORPUS CHR PTSUNNY   80  68  66 NE13      30.11S
ROCKPORT       MOSUNNY   80  62  54 NE9       30.11S
KINGSVILLE NAS PTSUNNY   78  66  66 NE8       30.11S
ALICE          SUNNY     79  63  57 NE3       30.12S
FALFURRIAS     MOSUNNY   78  65  63 N9        30.12R
$$

...VICTORIA AREA OBSERVATIONS...

CITY           SKY/WX    TMP DP  RH WIND       PRES   REMARKS
VICTORIA       CLOUDY    74  61  63 NE6       30.13F
BEEVILLE       FAIR      79  61  53 NE6       30.12F
PLEASANTON     SUNNY     78  59  53 CALM      30.16S
SAN ANTONIO    MOSUNNY   78  59  51 VRB3      30.16R
$$

...LAREDO AREA OBSERVATIONS...

CITY           SKY/WX    TMP DP  RH WIND       PRES   REMARKS
LAREDO         PTSUNNY   79  64  59 E5        30.16S
COTULLA        SUNNY     80  58  46 CALM      30.14S
DEL RIO        CLOUDY    71  66  84 SE7       30.16R
MCALLEN        MOSUNNY   81  67  62 NE8       30.11S
HEBBRONVILLE   PTSUNNY   74  62  67 N6        30.15S
$$

...OTHER TEXAS OBSERVATIONS...

CITY           SKY/WX    TMP DP  RH WIND       PRES   REMARKS
BROWNSVILLE    NOT AVBL
HOUSTON        CLOUDY    70  55  59 VRB3      30.15S
COL. STATION   MOSUNNY   74  54  49 W3        30.16S
AUSTIN         MOSUNNY   75  60  59 CALM      30.15S
WACO           CLOUDY    73  56  54 SE5       30.16F
FORT WORTH     PTSUNNY   69  55  60 S9        30.16F
WICHITA FALLS  PTSUNNY   74  59  59 S9        30.13S
LUBBOCK        CLOUDY    58  56  93 W8        30.18S FOG
EL PASO        SUNNY     69  56  62 NW3       30.24R
$$

...MARINE OBSERVATIONS...

STATION/POSITION TIME  SKY/WX   TEMP    WIND        PRES    VSBY  WAVE   SWELL
                                AIR SEA DIR/SP/G                  HT/PER HT/PER
                 (UTC)          (F)     (DEG/KT/KT) (MB)    (MI)  (FT/S) (FT/S)
PORT ARANSAS     1700            74 78   20/ 13/ 14 1020.3
BUOY 90 E PORT A 1600            77 81   40/  6/  8 1019.2R         4/ 7   3/ 7
BUOY 45 SE BAFFI 1700            78 81   20/ 10/ 12 1018.5R         4/ 7   3/ 7
BUOY 200 E PT IS 1700            78 81   30/ 16/ 19 1017.0R         6/ 7   5/ 7
BUOY 15 E GALVES 1700            72 78   50/  8/ 10 1019.6R         3/ 6   2/ 6
$$



USA.gov is the U.S. government's official web portal to all federal, state and local government web resources and services.